This demonstration page uses our WeatherBlox Daily Observations layout. Learn more.

Left ArrowRight Arrow

Hourly Observations for June 7, 2015

Temp ( °F °C ) Dew Point ( °F °C ) Humidity (%) Winds ( mph kmh ) Pressure ( in mb ) Visibility ( mi km ) Precip ( " mm )
12:59 am 00:59 Mostly Clear 69 20.6 60 15.6 73 73 ENE 8 13 30.07 1018 10 16 0.00 0.00
1:59 am 01:59 Clear 69 20.6 60 15.6 73 73 ENE 9 15 30.07 1018 10 16 0.00 0.00
2:59 am 02:59 Clear 68 20 60 15.6 76 76 E 3 6 30.07 1018 10 16 0.00 0.00
3:59 am 03:59 Clear 67 19.4 61 16.1 81 81 ESE 6 9 30.07 1018 9 14 0.00 0.00
4:59 am 04:59 Mostly Clear 66 18.9 60 15.6 81 81 Calm 30.08 1019 8 13 0.00 0.00
5:59 am 05:59 Mostly Sunny 65 18.3 59 15 81 81 Calm 30.10 1019 7 11 0.00 0.00
6:59 am 06:59 Mostly Sunny 70 21.1 63 17.2 79 79 NE 13 20 30.13 1020 9 14 0.00 0.00
7:59 am 07:59 Mostly Sunny 72 22.2 63 17.2 73 73 E 13 20 30.15 1021 10 16 0.00 0.00
8:59 am 08:59 Mostly Sunny 74 23.3 62 16.7 67 67 E 13 20 30.16 1022 10 16 0.00 0.00
9:59 am 09:59 Mostly Sunny 75 23.9 62 16.7 64 64 E 12 19 30.17 1022 10 16 0.00 0.00
10:59 am 10:59 Mostly Sunny 76 24.4 62 16.7 62 62 E 13 20 30.19 1022 10 16 0.00 0.00
11:59 am 11:59 Partly Cloudy 78 25.6 62 16.7 58 58 ENE 16 26 30.19 1022 10 16 0.00 0.00
12:59 pm 12:59 Partly Cloudy 77 25 62 16.7 60 60 ENE 13 20 30.19 1022 10 16 0.00 0.00
1:59 pm 13:59 Partly Cloudy 79 26.1 61 16.1 54 54 E 15 24 30.16 1022 10 16 0.00 0.00
2:59 pm 14:59 Partly Cloudy 80 26.7 55 12.8 42 42 E 8 13 30.16 1022 10 16 0.00 0.00
3:59 pm 15:59 Mostly Cloudy 79 26.1 56 13.3 45 45 ENE 13 20 30.16 1021 10 16 0.00 0.00
4:59 pm 16:59 Mostly Cloudy 78 25.6 57 13.9 48 48 ENE 14 22 30.16 1021 10 16 0.00 0.00
5:59 pm 17:59 Mostly Cloudy 77 25 56 13.3 48 48 E 12 19 30.15 1021 10 16 0.00 0.00
6:59 pm 18:59 Mostly Cloudy 76 24.4 56 13.3 50 50 E 9 15 30.17 1022 10 16 0.00 0.00
7:59 pm 19:59 Mostly Cloudy 74 23.3 52 11.1 46 46 E 8 13 30.16 1021 10 16 0.00 0.00
8:59 pm 20:59 Partly Cloudy 69 20.6 51 10.6 53 53 ESE 9 15 30.16 1021 10 16 0.00 0.00
9:59 pm 21:59 Partly Cloudy 68 20 54 12.2 61 61 ESE 9 15 30.15 1021 10 16 0.00 0.00
10:59 pm 22:59 Partly Cloudy 67 19.4 55 12.8 66 66 SE 7 11 30.14 1021 10 16 0.00 0.00
11:59 pm 23:59 Partly Cloudy 68 20 55 12.8 63 63 SE 8 13 30.13 1020 10 16 0.00 0.00

Powered by AerisWeather